GEFSSE_prec_meanprecacc_288.txt.gz
Total_Precipitation_Accumulation
1.82 2.12 2.82 2.61 2.13 2.07 2.00 1.81 1.73 1.57 1.59 1.62 1.63 1.53 1.48 1.53 1.60 1.72 1.87 2.05 2.14 2.10 1.97 2.08 2.11 2.09 1.92 1.77 1.69 1.50 1.41 1.30 1.31 1.29 1.31 1.30 1.32 1.50 1.78 1.87 1.96 1.36 1.32
1.30 1.64 2.34 2.30 1.98 1.89 1.83 1.72 1.66 1.64 1.65 1.60 1.66 1.65 1.69 1.72 1.65 1.71 1.97 2.07 2.00 1.90 1.81 1.85 1.84 1.71 1.57 1.48 1.40 1.28 1.32 1.37 1.40 1.55 1.62 1.43 1.38 1.55 1.75 1.79 1.95 1.31 1.22
1.00 1.24 1.55 1.79 1.65 1.56 1.61 1.59 1.61 1.65 1.60 1.58 1.61 1.69 1.74 1.83 1.86 1.98 1.98 1.82 1.75 1.74 1.68 1.71 1.63 1.40 1.30 1.22 1.19 1.23 1.39 1.55 1.74 1.92 2.14 1.46 1.11 1.48 1.53 1.52 1.40 1.21 1.15
0.90 1.02 1.17 1.49 1.50 1.43 1.53 1.55 1.66 1.64 1.54 1.51 1.57 1.65 1.76 1.98 2.02 1.94 1.76 1.64 1.67 1.61 1.56 1.49 1.42 1.23 1.15 1.08 1.08 1.26 1.51 1.60 1.80 2.17 2.01 1.17 0.82 1.04 1.21 1.22 1.13 1.13 1.03
1.01 1.13 1.32 1.48 1.49 1.53 1.60 1.69 1.67 1.56 1.51 1.56 1.70 1.83 1.98 1.99 1.87 1.73 1.64 1.54 1.46 1.36 1.32 1.19 1.20 1.17 1.08 1.01 1.05 1.26 1.50 1.61 1.94 1.92 1.26 1.13 1.10 1.08 1.04 1.10 1.11 1.04 0.90
1.16 1.26 1.34 1.44 1.44 1.45 1.46 1.54 1.65 1.67 1.63 1.68 1.71 1.78 1.80 1.75 1.69 1.55 1.41 1.32 1.26 1.17 1.07 0.99 1.00 1.15 1.08 1.00 1.03 1.19 1.49 1.72 1.75 1.21 0.97 0.90 0.92 1.08 1.03 1.20 1.26 1.10 0.92
1.13 1.25 1.27 1.40 1.46 1.44 1.44 1.50 1.58 1.63 1.63 1.63 1.60 1.60 1.56 1.54 1.55 1.39 1.24 1.17 1.12 1.00 0.89 0.88 0.95 1.11 1.04 0.98 1.01 1.13 1.41 1.77 1.39 0.99 0.97 0.98 0.92 0.95 1.13 1.35 1.51 1.35 1.12
1.13 1.23 1.32 1.55 1.59 1.56 1.49 1.51 1.48 1.52 1.55 1.49 1.46 1.48 1.43 1.35 1.32 1.25 1.18 1.08 1.01 0.91 0.86 0.86 0.92 1.00 1.01 1.00 1.07 1.15 1.36 1.42 0.93 0.86 0.82 0.83 0.74 0.84 1.15 1.35 1.54 1.51 1.40
1.26 1.29 1.45 1.64 1.60 1.52 1.62 1.55 1.51 1.48 1.47 1.44 1.42 1.43 1.33 1.19 1.12 1.11 1.17 1.13 0.96 0.89 0.88 0.89 0.92 0.92 0.93 1.02 1.06 1.15 1.27 1.32 1.05 0.94 0.78 0.78 0.77 1.04 1.48 1.56 1.54 1.53 1.52
1.62 1.50 1.57 1.64 1.50 1.36 1.36 1.39 1.35 1.30 1.25 1.27 1.27 1.23 1.25 1.20 1.12 1.12 1.14 1.13 1.04 1.01 1.07 1.04 1.01 0.97 0.92 0.95 1.06 1.19 1.24 1.17 1.13 0.98 0.84 0.70 0.86 1.21 1.60 1.73 1.73 1.73 1.65
1.86 1.75 1.60 1.48 1.39 1.30 1.17 1.17 1.32 1.36 1.33 1.33 1.27 1.20 1.28 1.40 1.20 1.25 1.19 1.34 1.33 1.25 1.32 1.37 1.38 1.29 1.18 1.06 1.24 1.36 1.23 1.20 1.25 1.12 0.91 0.75 0.99 1.33 1.65 1.77 1.77 1.76 1.69
2.08 1.85 1.71 1.60 1.37 1.17 1.05 1.22 1.53 1.31 1.33 1.41 1.47 1.42 1.64 1.86 1.83 1.24 1.36 1.67 1.77 1.79 1.83 1.91 1.96 1.69 1.44 1.35 1.81 1.98 1.35 1.29 1.38 1.30 1.15 1.09 1.34 1.62 1.88 1.83 1.76 1.81 1.72
2.38 2.14 1.98 1.78 1.50 1.26 1.35 1.23 1.38 1.56 1.66 1.65 1.59 1.59 1.80 1.67 1.46 1.34 1.53 1.82 2.07 2.10 2.09 2.31 2.34 2.01 2.06 2.33 2.30 2.08 1.57 1.71 1.76 1.68 1.57 1.65 1.79 2.08 2.46 2.26 1.93 1.87 1.83
2.55 2.42 2.40 2.03 1.86 1.86 1.65 1.37 1.26 1.28 1.42 1.61 1.84 1.77 1.87 2.11 2.02 1.96 2.10 2.14 2.25 2.46 2.85 2.70 2.85 2.71 2.69 2.61 2.51 2.33 2.09 2.16 2.11 2.20 2.10 1.89 1.97 2.31 2.84 2.84 2.41 2.08 1.92
2.54 2.55 2.55 2.38 2.20 2.26 2.04 1.80 1.54 1.65 1.65 1.71 1.84 1.96 1.91 2.22 2.46 2.48 2.47 2.42 2.27 2.35 2.60 2.78 2.77 3.13 3.29 2.91 2.52 2.35 2.37 2.47 2.35 2.32 2.19 2.03 1.99 2.22 2.68 2.94 2.84 2.63 2.36
2.80 2.84 2.64 2.58 2.57 2.58 2.49 2.42 2.31 2.02 2.10 2.00 1.96 1.94 2.00 2.27 2.62 2.80 2.72 2.64 2.46 2.42 2.61 2.81 2.97 3.45 3.41 3.24 2.82 2.56 2.49 2.45 2.26 2.18 2.29 2.43 2.26 2.18 2.34 2.73 3.06 3.03 2.88
3.15 3.18 3.15 3.10 3.25 3.20 3.05 2.94 2.69 2.45 2.31 2.27 2.35 2.36 2.27 2.37 2.67 2.70 2.56 2.46 2.51 2.62 2.82 2.86 3.06 3.29 3.00 3.02 2.84 2.62 2.44 2.25 2.09 2.06 2.23 2.41 2.28 2.22 2.37 2.61 2.91 3.04 3.18
3.32 3.48 3.65 3.62 3.65 3.49 3.52 3.49 3.22 2.97 2.79 2.61 2.55 2.59 2.44 2.43 2.54 2.78 2.58 2.42 2.73 2.74 2.89 3.20 3.35 3.30 3.26 3.29 3.04 2.65 2.40 2.30 1.97 1.85 1.83 2.01 2.25 2.04 2.35 2.61 2.68 2.82 3.19
3.69 3.97 4.17 4.16 4.03 3.79 3.85 3.82 3.67 3.54 3.21 2.84 2.67 2.58 2.45 2.44 2.58 2.90 2.90 2.96 2.99 3.08 3.14 2.99 3.43 3.49 3.38 3.40 2.97 2.74 2.40 2.13 1.93 1.74 1.66 1.66 1.89 2.12 2.25 2.32 2.41 2.58 3.07
4.17 4.57 4.43 4.34 4.55 4.46 4.33 4.20 3.93 3.47 3.04 2.89 2.86 2.67 2.52 2.58 2.70 3.12 2.99 2.96 3.02 3.19 3.27 3.24 3.42 3.46 3.20 3.16 2.84 2.74 2.34 1.86 1.77 1.71 1.54 1.55 1.66 1.70 2.01 2.33 2.57 2.32 2.65
4.23 4.62 4.78 4.79 4.72 4.57 4.23 3.93 3.69 3.46 3.24 2.98 2.80 2.70 2.60 2.52 2.72 3.17 2.99 3.22 3.17 3.17 3.18 3.24 3.38 3.30 3.01 3.19 3.28 2.84 2.28 1.85 1.83 1.60 1.53 1.58 1.63 1.63 1.96 2.37 2.65 2.58 2.33
3.87 4.33 4.63 4.78 4.68 4.31 3.97 3.80 3.70 3.68 3.28 2.98 2.94 3.06 2.88 2.89 2.93 2.97 3.15 3.10 3.16 3.28 3.22 3.22 3.36 3.16 2.81 3.06 3.41 3.47 2.81 2.40 1.94 1.46 1.56 1.67 1.81 1.90 1.98 2.11 2.32 2.57 2.57
3.43 3.73 3.84 4.01 3.96 3.81 3.87 3.90 3.85 3.88 3.47 3.37 3.37 3.37 3.15 3.14 3.16 3.16 3.11 3.01 3.02 2.83 2.92 3.00 3.02 3.03 2.96 2.88 3.21 3.56 3.13 2.65 2.30 1.72 1.59 1.61 1.84 2.14 2.17 2.19 2.22 2.46 2.60
2.98 3.30 3.53 3.59 3.54 3.47 3.58 3.66 3.56 3.39 3.24 3.40 3.68 3.62 3.32 3.10 2.96 2.78 2.71 2.86 2.88 2.67 2.71 2.38 2.53 2.72 2.73 2.58 2.86 2.95 2.99 2.96 2.88 2.22 1.77 1.59 1.73 1.95 2.15 2.08 2.12 2.37 2.65
2.58 2.87 3.11 3.37 3.47 3.43 3.50 3.47 3.50 3.35 3.34 3.40 3.39 3.41 3.20 3.00 2.66 2.33 2.36 2.55 2.52 2.44 2.35 2.24 2.40 2.31 2.28 2.33 2.55 2.75 2.83 2.90 2.77 2.62 2.21 2.13 2.06 1.92 1.90 1.98 2.19 2.33 2.56
2.25 2.37 2.51 2.71 2.99 3.17 3.24 3.21 3.25 3.21 3.18 3.12 3.05 2.93 2.72 2.57 2.33 2.05 1.96 2.13 2.24 2.27 2.22 2.20 2.28 2.20 2.25 2.39 2.39 2.45 2.68 2.70 2.67 2.82 2.44 2.28 2.24 1.98 1.95 2.08 2.12 2.32 2.43

GEFSSE_prec_meanprecacc_294.txt.gz
Total_Precipitation_Accumulation
1.97 2.28 2.97 2.72 2.23 2.15 2.08 1.89 1.78 1.62 1.65 1.67 1.68 1.57 1.52 1.60 1.70 1.87 2.05 2.19 2.25 2.20 2.09 2.21 2.25 2.26 2.11 1.94 1.84 1.68 1.58 1.41 1.41 1.42 1.41 1.41 1.43 1.59 1.85 1.92 2.01 1.40 1.34
1.42 1.76 2.45 2.42 2.07 1.96 1.90 1.77 1.70 1.69 1.71 1.65 1.72 1.69 1.73 1.77 1.72 1.82 2.09 2.18 2.09 1.98 1.92 1.98 1.97 1.89 1.74 1.64 1.58 1.49 1.49 1.49 1.52 1.73 1.78 1.60 1.53 1.66 1.84 1.86 2.00 1.36 1.27
1.11 1.34 1.66 1.94 1.76 1.64 1.66 1.62 1.63 1.69 1.65 1.64 1.68 1.75 1.79 1.87 1.90 2.02 2.05 1.89 1.83 1.82 1.78 1.84 1.80 1.59 1.45 1.34 1.31 1.35 1.51 1.67 1.88 2.14 2.44 1.66 1.27 1.63 1.63 1.59 1.45 1.26 1.20
1.00 1.11 1.30 1.67 1.64 1.51 1.58 1.59 1.69 1.67 1.58 1.56 1.64 1.71 1.82 2.02 2.05 1.98 1.81 1.71 1.74 1.69 1.66 1.63 1.61 1.41 1.28 1.18 1.20 1.38 1.64 1.74 1.95 2.34 2.29 1.47 1.03 1.20 1.31 1.32 1.21 1.21 1.10
1.08 1.20 1.45 1.68 1.67 1.63 1.66 1.73 1.71 1.60 1.55 1.61 1.75 1.90 2.06 2.08 1.94 1.79 1.71 1.61 1.55 1.47 1.45 1.37 1.42 1.32 1.18 1.13 1.21 1.41 1.64 1.79 2.13 2.07 1.41 1.34 1.28 1.23 1.14 1.19 1.20 1.12 0.99
1.22 1.31 1.44 1.62 1.65 1.62 1.55 1.59 1.69 1.71 1.66 1.72 1.76 1.86 1.93 1.90 1.79 1.61 1.47 1.39 1.35 1.28 1.20 1.18 1.28 1.33 1.24 1.20 1.22 1.33 1.64 1.88 1.92 1.35 1.07 1.01 1.04 1.19 1.11 1.28 1.33 1.17 0.99
1.17 1.29 1.33 1.54 1.68 1.68 1.62 1.64 1.68 1.72 1.70 1.68 1.67 1.70 1.71 1.71 1.65 1.48 1.31 1.23 1.19 1.08 1.00 1.09 1.20 1.27 1.19 1.15 1.15 1.28 1.62 1.94 1.49 1.09 1.06 1.07 1.01 1.03 1.19 1.41 1.59 1.41 1.17
1.16 1.26 1.37 1.63 1.73 1.76 1.68 1.70 1.64 1.65 1.67 1.59 1.56 1.60 1.56 1.47 1.43 1.35 1.26 1.14 1.08 0.99 0.97 1.06 1.10 1.14 1.12 1.13 1.19 1.30 1.53 1.57 1.04 0.96 0.91 0.90 0.80 0.90 1.21 1.41 1.60 1.56 1.46
1.28 1.31 1.49 1.72 1.70 1.65 1.77 1.70 1.67 1.63 1.61 1.56 1.52 1.53 1.44 1.30 1.25 1.23 1.28 1.22 1.05 0.98 0.98 1.01 1.02 1.01 1.04 1.13 1.19 1.28 1.39 1.45 1.16 1.04 0.87 0.86 0.84 1.10 1.55 1.64 1.59 1.57 1.57
1.64 1.51 1.59 1.71 1.58 1.45 1.46 1.50 1.47 1.42 1.37 1.39 1.37 1.34 1.36 1.35 1.27 1.29 1.28 1.25 1.14 1.09 1.16 1.12 1.10 1.06 1.02 1.03 1.14 1.27 1.33 1.27 1.22 1.06 0.94 0.84 0.96 1.29 1.69 1.81 1.79 1.78 1.69
1.88 1.77 1.62 1.53 1.43 1.35 1.22 1.22 1.40 1.46 1.42 1.40 1.35 1.28 1.36 1.49 1.30 1.38 1.32 1.48 1.49 1.40 1.47 1.50 1.48 1.38 1.26 1.13 1.30 1.43 1.29 1.25 1.30 1.18 1.00 0.86 1.08 1.43 1.74 1.84 1.83 1.81 1.73
2.10 1.87 1.74 1.62 1.40 1.20 1.08 1.24 1.56 1.37 1.41 1.48 1.53 1.46 1.67 1.89 1.87 1.31 1.46 1.80 1.93 1.97 1.99 2.04 2.07 1.78 1.50 1.41 1.88 2.04 1.39 1.33 1.43 1.36 1.20 1.13 1.40 1.69 1.95 1.90 1.81 1.85 1.76
2.40 2.16 2.01 1.80 1.52 1.28 1.38 1.25 1.40 1.58 1.69 1.68 1.62 1.62 1.82 1.69 1.50 1.38 1.58 1.88 2.16 2.19 2.16 2.38 2.41 2.06 2.12 2.40 2.36 2.13 1.62 1.75 1.80 1.72 1.63 1.69 1.84 2.12 2.51 2.31 1.98 1.93 1.89
2.57 2.45 2.43 2.05 1.88 1.88 1.67 1.39 1.28 1.30 1.44 1.64 1.89 1.81 1.91 2.15 2.06 2.00 2.15 2.19 2.30 2.51 2.91 2.76 2.89 2.76 2.75 2.67 2.56 2.38 2.13 2.22 2.15 2.25 2.16 1.93 2.01 2.34 2.87 2.88 2.45 2.14 1.99
2.56 2.59 2.58 2.39 2.21 2.28 2.06 1.82 1.56 1.69 1.68 1.75 1.93 2.04 1.97 2.27 2.50 2.52 2.52 2.47 2.33 2.39 2.65 2.84 2.82 3.17 3.35 2.98 2.60 2.41 2.42 2.51 2.40 2.37 2.24 2.09 2.04 2.26 2.72 2.98 2.88 2.67 2.41
2.82 2.87 2.65 2.59 2.58 2.59 2.51 2.43 2.33 2.06 2.15 2.06 2.04 2.03 2.06 2.33 2.69 2.85 2.78 2.69 2.50 2.47 2.64 2.83 3.00 3.48 3.46 3.30 2.89 2.63 2.53 2.49 2.31 2.24 2.33 2.47 2.30 2.22 2.38 2.76 3.11 3.08 2.93
3.17 3.21 3.18 3.12 3.26 3.22 3.06 2.95 2.71 2.48 2.33 2.31 2.39 2.40 2.30 2.41 2.73 2.74 2.61 2.51 2.54 2.65 2.84 2.88 3.10 3.33 3.05 3.07 2.90 2.69 2.49 2.28 2.12 2.10 2.26 2.43 2.30 2.24 2.40 2.65 2.96 3.08 3.24
3.35 3.52 3.69 3.65 3.67 3.51 3.53 3.51 3.23 2.98 2.80 2.63 2.57 2.61 2.45 2.45 2.57 2.81 2.59 2.44 2.75 2.75 2.91 3.22 3.38 3.32 3.28 3.31 3.07 2.68 2.44 2.34 2.00 1.89 1.86 2.03 2.27 2.06 2.38 2.64 2.73 2.87 3.25
3.72 3.99 4.21 4.20 4.06 3.81 3.87 3.85 3.68 3.54 3.22 2.85 2.68 2.60 2.47 2.45 2.59 2.91 2.91 2.98 3.00 3.10 3.15 3.00 3.44 3.51 3.40 3.43 3.00 2.77 2.44 2.17 1.97 1.78 1.70 1.69 1.92 2.14 2.27 2.34 2.45 2.61 3.12
4.19 4.59 4.46 4.37 4.57 4.48 4.35 4.22 3.93 3.47 3.04 2.90 2.86 2.68 2.54 2.60 2.71 3.13 3.00 2.97 3.03 3.20 3.27 3.24 3.43 3.47 3.21 3.18 2.87 2.78 2.39 1.92 1.82 1.77 1.60 1.60 1.71 1.74 2.06 2.38 2.61 2.36 2.70
4.25 4.63 4.79 4.81 4.74 4.58 4.24 3.95 3.71 3.47 3.25 2.99 2.80 2.71 2.61 2.52 2.73 3.18 3.00 3.24 3.18 3.18 3.19 3.24 3.39 3.31 3.03 3.22 3.31 2.89 2.31 1.88 1.86 1.64 1.59 1.63 1.69 1.68 2.03 2.44 2.70 2.64 2.37
3.89 4.34 4.64 4.80 4.69 4.32 3.98 3.82 3.72 3.69 3.29 2.99 2.95 3.07 2.89 2.90 2.94 2.98 3.16 3.12 3.17 3.29 3.23 3.22 3.37 3.17 2.82 3.08 3.44 3.51 2.83 2.41 1.96 1.48 1.59 1.70 1.84 1.94 2.04 2.17 2.38 2.63 2.62
3.45 3.74 3.84 4.02 3.97 3.82 3.88 3.92 3.87 3.90 3.48 3.38 3.38 3.38 3.17 3.16 3.17 3.17 3.13 3.03 3.04 2.85 2.93 3.01 3.03 3.05 2.97 2.91 3.24 3.58 3.16 2.66 2.31 1.74 1.61 1.63 1.87 2.16 2.20 2.22 2.26 2.50 2.64
2.99 3.31 3.53 3.59 3.55 3.48 3.60 3.67 3.57 3.40 3.26 3.41 3.69 3.63 3.33 3.11 2.98 2.80 2.73 2.88 2.91 2.69 2.72 2.40 2.55 2.74 2.76 2.61 2.88 2.97 3.01 2.99 2.90 2.23 1.79 1.62 1.77 1.98 2.17 2.11 2.14 2.40 2.68
2.59 2.87 3.11 3.37 3.48 3.43 3.51 3.48 3.51 3.36 3.36 3.42 3.40 3.42 3.21 3.02 2.70 2.37 2.38 2.57 2.54 2.45 2.37 2.26 2.42 2.32 2.29 2.36 2.58 2.77 2.85 2.93 2.82 2.65 2.23 2.16 2.09 1.95 1.93 2.00 2.22 2.37 2.60
2.26 2.38 2.52 2.72 2.99 3.17 3.24 3.22 3.26 3.21 3.19 3.14 3.06 2.94 2.73 2.58 2.37 2.09 1.99 2.16 2.27 2.29 2.26 2.25 2.32 2.23 2.28 2.42 2.42 2.47 2.70 2.73 2.69 2.85 2.46 2.31 2.28 2.02 1.98 2.11 2.15 2.36 2.48

GEFSSE_prec_meanprecacc_300.txt.gz
Total_Precipitation_Accumulation
2.19 2.47 3.15 2.90 2.35 2.25 2.17 1.97 1.86 1.73 1.76 1.74 1.75 1.65 1.58 1.67 1.83 2.08 2.30 2.42 2.46 2.38 2.25 2.34 2.38 2.46 2.38 2.23 2.03 1.83 1.73 1.56 1.52 1.51 1.49 1.47 1.50 1.66 1.94 2.00 2.08 1.45 1.41
1.56 1.90 2.63 2.59 2.20 2.06 1.97 1.84 1.77 1.79 1.82 1.72 1.78 1.74 1.77 1.86 1.96 2.11 2.35 2.38 2.24 2.09 2.03 2.08 2.10 2.10 2.02 1.88 1.78 1.69 1.72 1.70 1.67 1.84 1.87 1.67 1.62 1.75 1.93 1.94 2.07 1.41 1.34
1.23 1.48 1.84 2.09 1.88 1.72 1.72 1.67 1.69 1.77 1.77 1.74 1.76 1.81 1.84 1.96 2.09 2.27 2.26 2.05 1.94 1.91 1.87 1.94 1.92 1.78 1.68 1.52 1.48 1.51 1.67 1.84 2.02 2.27 2.56 1.75 1.37 1.75 1.75 1.69 1.54 1.34 1.28
1.11 1.24 1.47 1.84 1.76 1.58 1.63 1.62 1.73 1.74 1.67 1.64 1.70 1.79 1.89 2.11 2.20 2.15 1.97 1.84 1.84 1.78 1.76 1.75 1.77 1.62 1.46 1.31 1.31 1.48 1.76 1.87 2.09 2.47 2.43 1.63 1.17 1.36 1.47 1.44 1.31 1.30 1.20
1.17 1.30 1.64 1.87 1.78 1.72 1.71 1.78 1.77 1.68 1.63 1.68 1.83 1.99 2.14 2.16 2.05 1.90 1.80 1.71 1.64 1.56 1.56 1.52 1.61 1.52 1.33 1.25 1.32 1.53 1.79 1.95 2.28 2.18 1.58 1.64 1.55 1.46 1.33 1.35 1.32 1.23 1.08
1.27 1.40 1.65 1.85 1.77 1.70 1.62 1.65 1.74 1.76 1.72 1.78 1.84 1.94 2.01 1.97 1.86 1.68 1.55 1.48 1.44 1.37 1.30 1.33 1.48 1.48 1.36 1.31 1.34 1.46 1.78 2.03 2.05 1.44 1.20 1.26 1.35 1.49 1.36 1.48 1.47 1.27 1.08
1.20 1.35 1.50 1.81 1.87 1.78 1.68 1.70 1.73 1.76 1.75 1.75 1.75 1.78 1.78 1.79 1.73 1.54 1.37 1.30 1.29 1.17 1.09 1.23 1.39 1.39 1.30 1.27 1.28 1.41 1.74 2.04 1.56 1.15 1.13 1.19 1.18 1.24 1.40 1.59 1.73 1.51 1.25
1.17 1.28 1.43 1.79 1.93 1.92 1.80 1.78 1.71 1.72 1.73 1.66 1.65 1.69 1.66 1.56 1.50 1.41 1.30 1.19 1.16 1.08 1.07 1.23 1.29 1.25 1.27 1.29 1.33 1.44 1.65 1.65 1.09 1.00 0.95 0.96 0.90 1.00 1.34 1.54 1.70 1.64 1.52
1.30 1.32 1.52 1.81 1.84 1.81 1.93 1.83 1.77 1.72 1.71 1.67 1.64 1.66 1.57 1.40 1.32 1.29 1.33 1.28 1.13 1.08 1.15 1.29 1.25 1.19 1.24 1.31 1.33 1.43 1.57 1.60 1.28 1.12 0.91 0.92 0.94 1.20 1.66 1.74 1.69 1.66 1.65
1.65 1.53 1.61 1.75 1.65 1.54 1.58 1.66 1.62 1.56 1.50 1.50 1.49 1.51 1.53 1.47 1.38 1.38 1.35 1.33 1.24 1.23 1.42 1.46 1.39 1.32 1.23 1.21 1.31 1.46 1.55 1.47 1.37 1.16 1.01 0.90 1.04 1.39 1.76 1.89 1.89 1.87 1.76
1.89 1.78 1.64 1.54 1.46 1.40 1.28 1.30 1.49 1.56 1.52 1.50 1.45 1.40 1.50 1.61 1.42 1.48 1.41 1.57 1.60 1.58 1.72 1.77 1.74 1.59 1.43 1.29 1.46 1.57 1.41 1.36 1.38 1.25 1.05 0.91 1.14 1.50 1.81 1.92 1.93 1.90 1.81
2.12 1.89 1.76 1.65 1.42 1.22 1.10 1.28 1.60 1.43 1.46 1.54 1.59 1.55 1.77 2.01 2.01 1.45 1.61 1.93 2.07 2.14 2.18 2.23 2.26 1.94 1.61 1.48 1.95 2.11 1.45 1.38 1.47 1.40 1.25 1.18 1.46 1.76 2.04 1.97 1.89 1.93 1.82
2.43 2.19 2.04 1.83 1.55 1.30 1.40 1.27 1.42 1.62 1.74 1.73 1.69 1.70 1.91 1.79 1.61 1.52 1.75 2.06 2.31 2.33 2.27 2.49 2.52 2.14 2.18 2.44 2.40 2.17 1.65 1.78 1.82 1.75 1.67 1.75 1.90 2.19 2.57 2.37 2.06 2.00 1.96
2.60 2.47 2.45 2.07 1.90 1.90 1.69 1.41 1.30 1.32 1.47 1.67 1.94 1.88 1.97 2.22 2.13 2.07 2.20 2.24 2.35 2.56 2.97 2.81 2.94 2.80 2.80 2.71 2.59 2.41 2.17 2.25 2.18 2.27 2.19 1.98 2.06 2.40 2.95 2.95 2.53 2.22 2.07
2.58 2.60 2.59 2.40 2.24 2.29 2.07 1.84 1.58 1.70 1.70 1.77 1.96 2.08 2.01 2.30 2.53 2.55 2.55 2.50 2.35 2.42 2.69 2.87 2.85 3.20 3.38 3.01 2.62 2.44 2.45 2.55 2.42 2.39 2.25 2.13 2.09 2.32 2.79 3.06 2.97 2.78 2.52
2.83 2.89 2.66 2.60 2.60 2.60 2.51 2.45 2.36 2.10 2.19 2.11 2.09 2.07 2.10 2.37 2.73 2.89 2.82 2.73 2.55 2.51 2.66 2.85 3.02 3.50 3.48 3.33 2.92 2.65 2.56 2.52 2.33 2.25 2.36 2.51 2.34 2.26 2.43 2.83 3.18 3.17 3.03
3.18 3.22 3.19 3.13 3.27 3.23 3.07 2.96 2.72 2.51 2.39 2.39 2.48 2.50 2.39 2.48 2.78 2.79 2.65 2.56 2.59 2.68 2.87 2.90 3.12 3.36 3.07 3.10 2.94 2.72 2.51 2.31 2.15 2.12 2.29 2.46 2.32 2.28 2.45 2.71 3.02 3.15 3.32
3.36 3.54 3.71 3.66 3.68 3.53 3.55 3.53 3.24 2.99 2.82 2.65 2.60 2.64 2.49 2.48 2.60 2.83 2.62 2.47 2.78 2.79 2.94 3.24 3.41 3.36 3.31 3.34 3.10 2.71 2.46 2.36 2.03 1.91 1.88 2.05 2.29 2.07 2.40 2.68 2.78 2.93 3.34
3.73 4.01 4.22 4.21 4.07 3.82 3.88 3.86 3.70 3.55 3.24 2.87 2.69 2.61 2.49 2.47 2.63 2.94 2.93 3.00 3.02 3.12 3.18 3.02 3.46 3.52 3.41 3.44 3.02 2.81 2.47 2.18 1.99 1.80 1.72 1.71 1.93 2.15 2.29 2.36 2.49 2.67 3.20
4.20 4.61 4.47 4.38 4.58 4.48 4.35 4.23 3.95 3.49 3.06 2.91 2.87 2.68 2.55 2.61 2.74 3.16 3.02 3.00 3.05 3.22 3.30 3.27 3.44 3.48 3.22 3.19 2.90 2.82 2.42 1.95 1.84 1.79 1.62 1.62 1.73 1.77 2.09 2.42 2.65 2.41 2.77
4.26 4.66 4.81 4.82 4.75 4.59 4.25 3.96 3.72 3.48 3.26 3.01 2.81 2.72 2.63 2.54 2.76 3.21 3.03 3.27 3.20 3.20 3.21 3.26 3.40 3.32 3.04 3.24 3.33 2.92 2.36 1.92 1.89 1.67 1.61 1.66 1.71 1.70 2.04 2.46 2.73 2.67 2.41
3.90 4.35 4.67 4.82 4.70 4.34 4.00 3.83 3.73 3.70 3.31 3.01 2.96 3.09 2.92 2.93 2.97 3.01 3.19 3.13 3.19 3.31 3.25 3.24 3.38 3.18 2.83 3.11 3.46 3.54 2.87 2.45 1.99 1.51 1.62 1.73 1.88 1.97 2.06 2.19 2.40 2.66 2.65
3.46 3.75 3.86 4.03 3.98 3.84 3.89 3.92 3.87 3.91 3.49 3.40 3.39 3.40 3.19 3.18 3.19 3.20 3.16 3.05 3.06 2.87 2.94 3.03 3.04 3.06 2.99 2.94 3.27 3.62 3.19 2.69 2.34 1.77 1.63 1.65 1.90 2.19 2.23 2.25 2.29 2.53 2.68
3.01 3.32 3.54 3.60 3.56 3.49 3.60 3.68 3.58 3.41 3.27 3.43 3.71 3.64 3.34 3.13 2.99 2.82 2.75 2.90 2.92 2.70 2.74 2.41 2.56 2.76 2.79 2.64 2.92 3.01 3.05 3.03 2.93 2.26 1.81 1.64 1.80 2.01 2.21 2.16 2.19 2.44 2.72
2.61 2.88 3.12 3.38 3.49 3.44 3.51 3.49 3.52 3.37 3.37 3.43 3.42 3.43 3.22 3.04 2.72 2.40 2.41 2.60 2.56 2.47 2.39 2.29 2.44 2.35 2.32 2.39 2.62 2.82 2.90 2.98 2.86 2.68 2.25 2.18 2.12 1.98 1.96 2.05 2.27 2.41 2.64
2.28 2.40 2.53 2.73 3.01 3.18 3.24 3.22 3.26 3.22 3.21 3.15 3.08 2.95 2.74 2.60 2.39 2.13 2.02 2.19 2.29 2.32 2.29 2.27 2.35 2.27 2.31 2.45 2.46 2.52 2.75 2.76 2.73 2.89 2.49 2.33 2.31 2.06 2.03 2.14 2.18 2.39 2.50

GEFSSE_prec_meanprecacc_306.txt.gz
Total_Precipitation_Accumulation
2.30 2.59 3.29 3.04 2.46 2.36 2.27 2.07 1.96 1.83 1.88 1.86 1.87 1.77 1.68 1.77 1.94 2.23 2.47 2.61 2.62 2.54 2.42 2.50 2.53 2.58 2.48 2.34 2.14 1.94 1.88 1.70 1.67 1.66 1.60 1.54 1.55 1.71 1.99 2.07 2.13 1.49 1.47
1.69 2.05 2.81 2.72 2.30 2.13 2.05 1.92 1.86 1.89 1.91 1.83 1.93 1.87 1.89 1.97 2.08 2.25 2.50 2.55 2.42 2.26 2.19 2.22 2.22 2.23 2.13 2.02 1.95 1.84 1.89 1.88 1.82 1.97 1.95 1.73 1.67 1.81 1.99 2.02 2.14 1.47 1.40
1.35 1.65 2.08 2.28 2.01 1.82 1.81 1.76 1.78 1.86 1.87 1.82 1.88 1.92 1.96 2.11 2.27 2.43 2.42 2.22 2.09 2.04 1.99 2.05 2.04 1.91 1.82 1.70 1.71 1.69 1.86 2.07 2.19 2.40 2.65 1.81 1.43 1.81 1.81 1.75 1.60 1.41 1.37
1.24 1.42 1.73 2.06 1.87 1.66 1.72 1.73 1.85 1.86 1.78 1.73 1.80 1.91 2.07 2.32 2.46 2.39 2.17 2.02 1.96 1.88 1.86 1.87 1.91 1.78 1.62 1.51 1.57 1.66 1.89 2.02 2.21 2.57 2.52 1.70 1.22 1.41 1.53 1.50 1.37 1.37 1.28
1.29 1.46 1.85 2.05 1.90 1.81 1.79 1.86 1.87 1.79 1.73 1.76 1.91 2.11 2.37 2.43 2.37 2.19 2.02 1.87 1.75 1.66 1.67 1.66 1.75 1.69 1.52 1.43 1.57 1.69 1.89 2.05 2.38 2.26 1.65 1.74 1.63 1.52 1.39 1.40 1.38 1.32 1.16
1.38 1.53 1.79 2.00 1.88 1.80 1.71 1.73 1.82 1.86 1.84 1.88 1.92 2.04 2.17 2.20 2.11 1.92 1.76 1.63 1.56 1.49 1.43 1.48 1.68 1.70 1.52 1.47 1.56 1.63 1.91 2.16 2.18 1.52 1.27 1.38 1.51 1.61 1.44 1.55 1.55 1.38 1.19
1.29 1.46 1.59 1.94 1.99 1.89 1.78 1.80 1.83 1.86 1.87 1.84 1.81 1.85 1.89 1.93 1.89 1.68 1.50 1.47 1.45 1.31 1.25 1.45 1.63 1.58 1.43 1.42 1.46 1.55 1.87 2.18 1.68 1.23 1.20 1.31 1.41 1.49 1.59 1.76 1.85 1.63 1.37
1.24 1.38 1.52 1.89 2.06 2.05 1.91 1.88 1.80 1.83 1.86 1.79 1.74 1.78 1.76 1.66 1.60 1.49 1.37 1.29 1.28 1.23 1.27 1.45 1.46 1.36 1.36 1.40 1.46 1.56 1.77 1.78 1.18 1.07 1.01 1.06 1.06 1.26 1.60 1.80 1.91 1.82 1.66
1.34 1.40 1.64 1.91 1.93 1.91 2.03 1.93 1.87 1.86 1.90 1.87 1.77 1.76 1.67 1.48 1.40 1.35 1.39 1.34 1.21 1.21 1.34 1.49 1.39 1.30 1.33 1.41 1.45 1.56 1.69 1.72 1.38 1.19 0.96 0.99 1.03 1.34 1.86 2.00 1.93 1.86 1.81
1.68 1.57 1.68 1.82 1.72 1.61 1.65 1.75 1.73 1.68 1.66 1.71 1.71 1.67 1.64 1.55 1.44 1.43 1.41 1.40 1.32 1.35 1.60 1.66 1.54 1.45 1.35 1.34 1.43 1.58 1.68 1.59 1.49 1.26 1.08 0.97 1.12 1.49 1.91 2.08 2.07 2.04 1.91
1.92 1.82 1.67 1.57 1.50 1.44 1.31 1.33 1.54 1.63 1.61 1.63 1.64 1.60 1.62 1.70 1.49 1.55 1.48 1.65 1.70 1.71 1.90 1.96 1.91 1.75 1.58 1.41 1.55 1.68 1.52 1.49 1.51 1.37 1.17 1.02 1.25 1.61 1.92 2.03 2.03 2.02 1.94
2.13 1.90 1.78 1.67 1.45 1.25 1.12 1.30 1.63 1.47 1.51 1.63 1.75 1.72 1.88 2.09 2.08 1.53 1.69 2.03 2.22 2.31 2.34 2.38 2.40 2.08 1.72 1.56 2.01 2.18 1.51 1.43 1.54 1.48 1.32 1.27 1.55 1.85 2.13 2.05 1.97 2.02 1.93
2.45 2.20 2.05 1.87 1.58 1.34 1.43 1.30 1.44 1.64 1.77 1.78 1.77 1.82 2.00 1.85 1.67 1.59 1.82 2.17 2.44 2.44 2.37 2.58 2.61 2.22 2.24 2.48 2.45 2.22 1.69 1.81 1.85 1.79 1.71 1.79 1.95 2.25 2.62 2.42 2.10 2.06 2.05
2.61 2.48 2.47 2.10 1.93 1.94 1.73 1.43 1.32 1.33 1.49 1.70 1.99 1.94 2.02 2.27 2.20 2.13 2.26 2.29 2.41 2.63 3.05 2.88 3.01 2.86 2.85 2.74 2.62 2.44 2.20 2.27 2.20 2.31 2.23 2.01 2.10 2.45 2.98 3.00 2.57 2.27 2.12
2.59 2.61 2.62 2.43 2.27 2.32 2.09 1.85 1.60 1.72 1.72 1.81 2.01 2.13 2.05 2.35 2.61 2.64 2.63 2.57 2.42 2.50 2.77 2.94 2.90 3.24 3.42 3.03 2.63 2.45 2.47 2.56 2.44 2.42 2.29 2.15 2.12 2.35 2.83 3.11 3.03 2.84 2.57
2.85 2.90 2.69 2.63 2.63 2.62 2.53 2.46 2.38 2.11 2.22 2.14 2.14 2.13 2.16 2.44 2.81 2.98 2.91 2.81 2.61 2.56 2.71 2.90 3.06 3.54 3.50 3.34 2.93 2.67 2.57 2.53 2.36 2.28 2.39 2.54 2.37 2.30 2.48 2.89 3.25 3.23 3.10
3.19 3.24 3.22 3.16 3.29 3.24 3.09 2.97 2.73 2.53 2.42 2.43 2.53 2.56 2.45 2.53 2.84 2.85 2.71 2.62 2.63 2.72 2.91 2.94 3.15 3.38 3.09 3.11 2.95 2.73 2.52 2.32 2.17 2.15 2.32 2.50 2.36 2.31 2.50 2.78 3.08 3.22 3.39
3.37 3.57 3.74 3.69 3.70 3.54 3.55 3.53 3.25 3.00 2.83 2.68 2.63 2.67 2.52 2.52 2.65 2.89 2.67 2.52 2.83 2.84 2.97 3.27 3.43 3.38 3.33 3.36 3.11 2.73 2.48 2.38 2.04 1.93 1.90 2.08 2.31 2.10 2.43 2.72 2.82 3.00 3.42
3.76 4.05 4.26 4.25 4.09 3.83 3.89 3.87 3.70 3.56 3.25 2.89 2.71 2.63 2.51 2.51 2.65 2.97 2.96 3.03 3.06 3.17 3.22 3.05 3.48 3.53 3.43 3.46 3.04 2.83 2.50 2.21 2.01 1.82 1.74 1.73 1.95 2.17 2.32 2.38 2.51 2.71 3.25
4.25 4.66 4.52 4.42 4.60 4.50 4.36 4.24 3.96 3.50 3.07 2.93 2.89 2.70 2.57 2.63 2.76 3.19 3.04 3.02 3.09 3.27 3.36 3.32 3.48 3.52 3.24 3.21 2.91 2.84 2.44 1.96 1.86 1.81 1.64 1.64 1.75 1.78 2.11 2.44 2.69 2.44 2.79
4.30 4.70 4.86 4.87 4.78 4.62 4.27 3.97 3.73 3.49 3.28 3.02 2.83 2.75 2.66 2.56 2.78 3.25 3.06 3.30 3.24 3.24 3.27 3.32 3.45 3.36 3.07 3.26 3.35 2.95 2.38 1.95 1.92 1.70 1.64 1.68 1.73 1.71 2.06 2.48 2.76 2.70 2.43
3.91 4.37 4.69 4.86 4.74 4.36 4.01 3.84 3.74 3.71 3.32 3.02 2.99 3.12 2.94 2.94 2.99 3.04 3.23 3.18 3.23 3.36 3.31 3.30 3.44 3.23 2.88 3.16 3.51 3.58 2.90 2.48 2.02 1.54 1.65 1.76 1.90 1.99 2.06 2.20 2.41 2.68 2.67
3.47 3.76 3.87 4.05 4.01 3.86 3.90 3.93 3.89 3.92 3.50 3.42 3.42 3.42 3.21 3.20 3.22 3.23 3.19 3.09 3.10 2.92 3.00 3.08 3.10 3.11 3.05 3.00 3.32 3.68 3.24 2.74 2.39 1.80 1.66 1.68 1.93 2.22 2.25 2.26 2.30 2.55 2.70
3.03 3.33 3.57 3.63 3.58 3.52 3.63 3.70 3.60 3.42 3.29 3.44 3.73 3.67 3.38 3.17 3.03 2.85 2.79 2.95 2.97 2.74 2.78 2.46 2.60 2.81 2.83 2.70 2.97 3.06 3.10 3.08 2.99 2.32 1.87 1.70 1.84 2.05 2.24 2.18 2.22 2.47 2.75
2.63 2.90 3.14 3.41 3.51 3.46 3.54 3.51 3.54 3.39 3.38 3.44 3.44 3.47 3.27 3.08 2.76 2.44 2.46 2.65 2.60 2.51 2.43 2.34 2.50 2.40 2.36 2.44 2.67 2.86 2.94 3.02 2.90 2.73 2.31 2.25 2.19 2.05 2.02 2.09 2.31 2.46 2.70
2.30 2.41 2.54 2.76 3.03 3.20 3.26 3.24 3.28 3.24 3.22 3.18 3.12 2.99 2.78 2.63 2.43 2.17 2.07 2.24 2.34 2.36 2.34 2.33 2.41 2.32 2.34 2.49 2.50 2.55 2.78 2.80 2.76 2.93 2.52 2.37 2.36 2.11 2.08 2.19 2.22 2.43 2.55